Weather reports worldwide

Advertisment
Chambery/Aix-Les-Bains, France (7491): temperature & dewpoint: 16.06.2018 15:00:00 - 22.06.2018 15:00:00 (CEST)Chambery/Aix-Les-Bains, France (7491): temperature 5cm: 16.06.2018 15:00:00 - 22.06.2018 15:00:00 (CEST)Chambery/Aix-Les-Bains, France (7491): temperature -20cm & temperature -100cm: 16.06.2018 15:00:00 - 22.06.2018 15:00:00 (CEST)Chambery/Aix-Les-Bains, France (7491): wind speed & gusts: 16.06.2018 15:00:00 - 22.06.2018 15:00:00 (CEST)Chambery/Aix-Les-Bains, France (7491): wind direction: 16.06.2018 15:00:00 - 22.06.2018 15:00:00 (CEST)Chambery/Aix-Les-Bains, France (7491): reduced air pressure: 16.06.2018 15:00:00 - 22.06.2018 15:00:00 (CEST)Chambery/Aix-Les-Bains, France (7491): visibility: 16.06.2018 15:00:00 - 22.06.2018 15:00:00 (CEST)Chambery/Aix-Les-Bains, France (7491): sunshine duration: 16.06.2018 15:00:00 - 22.06.2018 15:00:00 (CEST)Chambery/Aix-Les-Bains, France (7491): precipitation: 16.06.2018 15:00:00 - 22.06.2018 15:00:00 (CEST)
Date & Time tt [°C] td [°C] tt 5cm [°C] tt -20cm [°C] tt -100cm [°C] ff [km/h] ff [kn] fx [km/h] fx [kn] dd ppp [hPa] vv [km] sd [min] rr [mm]
22.06.2018 15:00:00 24,5 6,3 27,0 20,4 17,2 32 17 56 31 N 1019,3 7 60 0,0
22.06.2018 14:00:00 23,6 7,2 25,6 20,4 17,2 34 18 49 27 N 1019,5 8 60 0,0
22.06.2018 13:00:00 22,9 8,6 24,5 20,4 17,2 31 17 49 26 N 1019,7 8 60 0,0
22.06.2018 12:00:00 22,2 10,3 23,1 20,4 17,2 26 14 51 28 N 1020,0 8 60 0,0
22.06.2018 11:00:00 20,7 10,8 22,8 20,5 17,2 26 14 44 24 N 1020,3 9 60 0,0
22.06.2018 10:00:00 19,5 11,0 21,3 20,5 17,2 27 14 42 23 N 1020,3 8 58 0,0
22.06.2018 09:00:00 18,3 12,3 19,9 20,6 17,2 31 17 42 23 N 1019,9 10 60 0,0
22.06.2018 08:00:00 18,0 12,9 18,3 20,6 17,2 31 17 44 24 N 1019,6 20 60 0,0
22.06.2018 07:00:00 17,9 13,4 17,5 20,7 17,2 25 13 36 19 N 1019,4 18 8 0,0
22.06.2018 06:00:00 18,2 13,5 18,2 20,8 17,2 24 13 44 24 N 1019,2 38 0 0,0
22.06.2018 05:00:00 18,8 14,1 18,6 20,8 17,2 29 16 41 22 N 1018,7 20 0 0,0
22.06.2018 04:00:00 19,9 15,1 18,5 20,9 17,2 16 9 26 14 NNE 1018,0 35 0 0,0
22.06.2018 03:00:00 20,5 14,4 19,7 20,9 17,2 5 3 28 15 NW 1018,0 20 0 0,0
22.06.2018 02:00:00 21,6 14,7 20,1 21,0 17,2 16 9 28 15 NNE 1018,0 38 0 0,0
22.06.2018 01:00:00 22,6 14,2 20,8 21,0 17,2 22 12 42 23 N 1018,0 42 0 0,0
22.06.2018 00:00:00 23,0 15,6 21,6 21,1 17,2 29 15 43 23 N 1017,9 40 0 0,0
21.06.2018 23:00:00 24,3 14,4 21,9 21,1 17,2 19 10 32 17 N 1017,2 39 0 0,0
21.06.2018 22:00:00 25,0 15,3 22,7 21,1 17,2 16 9 33 18 N 1016,4 47 3 0,0
21.06.2018 21:00:00 26,5 13,9 23,7 21,0 17,2 21 11 36 19 N 1015,6 44 14 0,0
21.06.2018 20:00:00 28,1 13,2 25,4 21,0 17,2 5 3 23 13 E 1014,9 20 43 0,0
21.06.2018 19:00:00 29,1 14,1 28,3 20,9 17,2 9 5 23 13 NNW 1014,5 20 47 0,0
21.06.2018 18:00:00 30,7 15,5 31,3 20,8 17,2 10 6 29 16 NNW 1014,5 19 57 0,0
21.06.2018 17:00:00 31,1 15,5 30,8 20,6 17,1 13 7 26 14 NW 1014,7 19 54 0,0
21.06.2018 16:00:00 29,9 15,6 30,4 20,5 17,2 11 6 22 12 N 1015,0 19 52 0,0
21.06.2018 15:00:00 31,1 16,3 32,3 20,4 17,1 16 9 23 12 N 1015,3 19 60 0,0
21.06.2018 14:00:00 29,6 17,8 32,2 20,3 17,1 12 7 21 11 NNE 1015,7 18 60 0,0
21.06.2018 13:00:00 28,3 18,1 30,9 20,2 17,1 9 5 16 9 N 1016,4 19 60 0,0
21.06.2018 12:00:00 26,5 17,6 29,0 20,2 17,1 8 5 17 9 N 1017,2 18 60 0,0
21.06.2018 11:00:00 25,2 18,6 23,8 20,2 17,1 11 6 16 9 N 1017,4 19 60 0,0
21.06.2018 10:00:00 24,1 17,6 21,8 20,2 17,1 3 1 7 4 WNW 1017,6 10 15 0,0
21.06.2018 09:00:00 22,9 16,2 21,0 20,2 17,1 4 2 8 5 SSE 1018,3 18 34 0,0
21.06.2018 08:00:00 20,5 17,3 18,7 20,3 17,1 0 0 6 3 N 1018,9 16 30 0,0
21.06.2018 07:00:00 18,1 17,1 16,3 20,4 17,1 3 2 7 4 S 1018,7 13 18 0,0
21.06.2018 06:00:00 17,2 16,4 16,2 20,4 17,1 0 0 6 3 N 1018,7 8 0 0,2
21.06.2018 05:00:00 17,3 16,2 16,6 20,5 17,1 3 1 5 3 SSE 1018,5 11 0 0,0
21.06.2018 04:00:00 17,8 16,7 17,2 20,6 17,1 3 2 6 3 S 1018,6 14 0 0,0
21.06.2018 03:00:00 18,2 16,7 17,8 20,6 17,1 4 2 8 5 SE 1018,6 16 0 0,0
21.06.2018 02:00:00 19,0 16,6 18,4 20,7 17,1 3 2 9 5 S 1018,6 17 0 0,0
21.06.2018 01:00:00 20,0 17,2 18,7 20,7 17,1 3 1 10 5 WNW 1018,6 18 0 0,0
21.06.2018 00:00:00 20,6 16,8 19,2 20,7 17,1 3 2 9 5 ENE 1018,5 17 0 0,0
20.06.2018 23:00:00 20,6 16,8 19,5 20,7 17,1 3 1 5 3 ENE 1018,6 20 0 0,0
20.06.2018 22:00:00 22,2 17,1 20,5 20,7 17,1 4 2 6 4 SSW 1017,8 43 0 0,0
20.06.2018 21:00:00 23,8 17,8 22,7 20,7 17,1 3 1 10 5 S 1017,0 19 0 0,0
20.06.2018 20:00:00 27,4 16,7 26,3 20,6 17,0 6 3 12 6 WNW 1016,7 19 49 0,0
20.06.2018 19:00:00 30,1 17,2 29,1 20,5 17,0 6 3 15 8 N 1016,6 18 60 0,0
20.06.2018 18:00:00 29,9 17,4 30,9 20,3 17,0 11 6 16 9 N 1016,6 20 60 0,0
20.06.2018 17:00:00 30,7 17,4 31,5 20,2 17,0 8 4 15 8 N 1017,0 19 60 0,0
20.06.2018 16:00:00 29,6 18,1 32,7 20,0 17,0 11 6 21 11 N 1017,4 18 60 0,0
20.06.2018 15:00:00 29,2 18,0 32,6 19,9 17,0 12 6 19 10 N 1018,0 49 60 0,0
20.06.2018 14:00:00 27,9 17,1 31,7 19,8 17,0 9 5 16 9 NNW 1018,7 19 60 0,0
20.06.2018 13:00:00 26,6 15,3 30,4 19,7 17,0 9 5 18 10 N 1019,4 17 60 0,0
20.06.2018 12:00:00 26,3 16,0 28,8 19,7 17,0 8 5 14 8 N 1019,7 17 60 0,0
20.06.2018 11:00:00 25,2 15,2 28,3 19,7 17,0 8 4 13 7 N 1020,0 18 60 0,0
20.06.2018 10:00:00 24,3 16,0 25,6 19,7 17,0 4 2 10 5 N 1020,4 18 60 0,0
20.06.2018 09:00:00 22,8 15,6 20,3 19,7 17,0 3 2 8 4 ENE 1020,7 19 60 0,0
20.06.2018 08:00:00 19,8 15,4 17,6 19,8 17,0 4 2 7 4 SSE 1021,0 17 60 0,0
20.06.2018 07:00:00 16,3 15,3 15,2 19,9 17,0 5 3 7 4 SE 1021,3 17 11 0,0
20.06.2018 06:00:00 15,3 14,3 14,7 20,0 17,0 3 2 8 4 S 1021,3 18 0 0,0
20.06.2018 05:00:00 15,7 14,2 15,1 20,0 17,0 3 2 5 3 WSW 1021,0 16 0 0,0
20.06.2018 04:00:00 15,7 14,4 15,5 20,1 17,0 5 3 7 4 S 1021,0 17 0 0,0
20.06.2018 03:00:00 16,4 14,8 16,1 20,1 17,0 6 3 10 5 S 1020,7 20 0 0,0
20.06.2018 02:00:00 16,7 15,2 16,2 20,2 17,0 5 3 7 4 SSE 1020,7 19 0 0,0
20.06.2018 01:00:00 17,4 15,2 16,8 20,2 17,0 4 2 6 4 S 1020,5 20 0 0,0
20.06.2018 00:00:00 18,4 15,3 17,4 20,3 17,0 3 1 5 3 SSE 1020,4 32 0 0,0
19.06.2018 23:00:00 19,6 14,6 18,3 20,3 17,0 5 3 9 5 S 1020,1 38 0 0,0
19.06.2018 22:00:00 21,3 15,4 19,2 20,3 17,0 2 1 13 7 SSW 1019,5 8 0 0,0
19.06.2018 21:00:00 23,1 15,7 21,6 20,2 17,0 4 2 16 9 S 1019,2 20 0 0,0
19.06.2018 20:00:00 26,4 15,1 25,1 20,1 17,0 6 4 26 14 NNW 1019,1 20 35 0,0
19.06.2018 19:00:00 28,6 15,8 28,1 20,0 16,9 8 5 22 12 NNW 1019,1 20 60 0,0
19.06.2018 18:00:00 28,7 15,2 29,9 20,0 17,0 11 6 23 13 N 1019,4 17 60 0,0
19.06.2018 17:00:00 28,8 15,3 31,0 19,8 16,9 12 6 23 12 N 1019,9 19 60 0,0
19.06.2018 16:00:00 28,3 15,2 31,4 19,7 17,0 15 8 24 13 N 1020,3 19 60 0,0
19.06.2018 15:00:00 27,9 14,2 31,0 19,6 16,9 16 9 28 15 N 1020,8 17 60 0,0
19.06.2018 14:00:00 - - - - - - - - - - - - - -
19.06.2018 13:00:00 - - - - - - - - - - - - - -
19.06.2018 12:00:00 - - - - - - - - - - - - - -
19.06.2018 11:00:00 22,6 15,7 - - - 11 6 18 10 NNW 1023,2 16 - -
19.06.2018 10:00:00 21,5 13,9 23,9 19,5 16,9 4 2 13 7 NE 1024,0 18 60 0,0
19.06.2018 09:00:00 20,1 13,5 20,2 19,5 16,9 4 2 13 7 NNE 1024,2 19 60 0,0
19.06.2018 08:00:00 18,4 14,5 15,9 19,6 16,9 3 2 8 4 ENE 1024,3 17 60 0,0
19.06.2018 07:00:00 14,8 13,8 13,9 19,7 16,9 3 1 6 3 S 1024,3 13 11 0,0
19.06.2018 06:00:00 14,0 12,9 13,8 19,8 16,9 2 1 7 4 S 1024,4 15 0 0,0
19.06.2018 05:00:00 13,9 12,6 14,1 19,8 16,9 3 1 6 3 SE 1023,9 18 0 0,0
19.06.2018 04:00:00 15,1 13,0 14,6 19,9 16,9 5 3 10 6 S 1023,6 19 0 0,0
19.06.2018 03:00:00 15,7 13,0 14,9 20,0 16,9 5 3 14 7 SSE 1023,3 20 0 0,0
19.06.2018 02:00:00 15,7 12,8 15,7 20,0 16,9 4 2 10 6 SSE 1023,2 20 0 0,0
19.06.2018 01:00:00 16,5 13,0 16,1 20,1 16,9 4 2 15 8 SSE 1022,8 20 0 0,0
19.06.2018 00:00:00 20,2 13,2 18,4 20,1 16,9 11 6 29 16 NE 1022,4 49 0 0,0
18.06.2018 23:00:00 21,1 13,3 18,0 20,1 16,9 18 10 26 14 N 1022,1 46 0 0,0
18.06.2018 22:00:00 20,4 13,6 18,5 20,1 16,9 4 2 17 9 S 1021,6 6 0 0,0
18.06.2018 21:00:00 22,9 12,8 21,1 20,0 16,9 6 3 18 10 N 1020,8 43 0 0,0
18.06.2018 20:00:00 24,3 14,4 23,5 20,0 16,9 8 5 18 10 N 1020,4 20 7 0,0
18.06.2018 19:00:00 25,4 14,5 25,1 19,9 16,9 9 5 16 9 N 1020,0 20 18 0,0
18.06.2018 18:00:00 26,2 14,3 27,5 19,8 16,9 11 6 20 11 N 1020,0 20 54 0,0
18.06.2018 17:00:00 26,1 13,9 26,5 19,7 16,9 13 7 26 14 N 1020,1 19 46 0,0
18.06.2018 16:00:00 26,0 13,5 29,0 19,6 16,9 14 8 25 14 N 1020,3 12 60 0,0
18.06.2018 15:00:00 25,5 14,9 28,7 19,5 16,9 18 10 29 15 N 1020,6 13 60 0,0
18.06.2018 14:00:00 24,8 14,3 29,0 19,5 16,9 15 8 27 14 NNE 1021,1 13 60 0,0
18.06.2018 13:00:00 24,2 13,7 27,8 19,4 16,9 16 9 34 18 N 1021,5 15 60 0,0
18.06.2018 12:00:00 23,3 14,6 27,2 19,4 16,8 16 8 29 16 N 1021,4 16 60 0,0
18.06.2018 11:00:00 21,9 14,0 24,5 19,4 16,8 18 10 29 16 N 1021,6 17 60 0,0
18.06.2018 10:00:00 20,7 13,4 23,3 19,5 16,9 18 10 26 14 N 1021,7 19 60 0,0
18.06.2018 09:00:00 20,2 12,7 20,9 19,5 16,9 16 8 25 14 N 1021,7 19 60 0,0
18.06.2018 08:00:00 19,2 12,2 18,3 19,6 16,9 17 9 26 14 NNE 1021,5 20 60 0,0
18.06.2018 07:00:00 18,7 12,0 17,6 19,6 16,8 17 9 26 14 NNE 1021,7 19 8 0,0
18.06.2018 06:00:00 18,7 11,0 17,2 19,7 16,8 16 9 26 14 N 1021,6 19 0 0,0
18.06.2018 05:00:00 18,7 11,3 17,5 19,7 16,8 16 9 29 15 N 1021,2 20 0 0,0
18.06.2018 04:00:00 19,2 10,5 17,9 19,8 16,9 17 9 29 16 N 1021,1 20 0 0,0
18.06.2018 03:00:00 19,2 11,0 18,1 19,8 16,8 13 7 26 14 N 1021,1 20 0 0,0
18.06.2018 02:00:00 19,2 11,2 18,2 19,9 16,8 12 7 30 16 N 1021,1 20 0 0,0
18.06.2018 01:00:00 19,6 11,4 18,3 19,9 16,8 16 9 25 14 NE 1021,1 20 0 0,0
18.06.2018 00:00:00 19,9 11,9 18,4 19,9 16,8 14 8 26 14 NNE 1021,2 20 0 0,0
17.06.2018 23:00:00 20,0 12,0 18,5 20,0 16,8 5 3 18 10 N 1021,2 19 0 0,0
17.06.2018 22:00:00 20,4 11,9 18,9 20,0 16,8 8 4 30 16 NNW 1020,7 20 0 0,0
17.06.2018 21:00:00 20,7 13,6 19,7 20,0 16,8 3 2 27 14 NNW 1019,8 18 0 0,0
17.06.2018 20:00:00 21,0 12,7 20,0 20,0 16,8 7 4 26 14 NW 1019,4 20 0 0,0
17.06.2018 19:00:00 21,1 14,3 20,7 19,9 16,8 8 4 22 12 SW 1018,9 19 0 0,0
17.06.2018 18:00:00 22,1 12,9 21,7 19,8 16,8 9 5 29 16 W 1018,4 19 0 0,0
17.06.2018 17:00:00 23,8 13,9 25,2 19,7 16,8 16 8 31 17 WNW 1017,9 17 21 0,0
17.06.2018 16:00:00 24,9 14,7 25,1 19,6 16,8 13 7 35 19 W 1017,3 17 30 0,0
17.06.2018 15:00:00 24,4 14,5 25,4 19,5 16,8 10 6 25 13 NE 1017,2 19 35 0,0
17.06.2018 14:00:00 25,5 16,1 27,7 19,5 16,8 13 7 29 16 NNE 1017,2 17 60 0,0
17.06.2018 13:00:00 24,7 15,3 27,4 19,4 16,8 15 8 30 16 NNE 1017,6 16 60 0,0
17.06.2018 12:00:00 23,7 15,7 25,2 19,4 16,8 16 9 26 14 NNE 1017,9 17 60 0,0
17.06.2018 11:00:00 22,7 14,8 23,8 19,4 16,8 17 9 25 14 NNE 1018,4 17 54 0,0
17.06.2018 10:00:00 21,9 15,5 20,1 19,4 16,8 9 5 16 9 NNE 1018,6 19 35 0,0
17.06.2018 09:00:00 20,1 15,5 19,5 19,5 16,8 6 3 14 8 S 1018,6 18 0 0,0
17.06.2018 08:00:00 18,9 15,4 17,1 19,5 16,8 0 0 7 4 N 1018,1 17 32 0,0
17.06.2018 07:00:00 16,4 14,6 15,7 19,5 16,8 3 1 6 3 SSW 1018,1 14 1 0,0
17.06.2018 06:00:00 16,0 13,7 15,4 19,6 16,8 5 3 9 5 E 1017,6 16 0 0,0
17.06.2018 05:00:00 17,9 14,0 16,5 19,6 16,8 5 3 10 6 S 1017,1 17 0 0,0
17.06.2018 04:00:00 18,4 14,3 17,6 19,7 16,8 3 2 23 12 SSE 1016,8 19 0 0,0
17.06.2018 03:00:00 20,7 14,1 18,8 19,7 16,8 7 4 16 9 ENE 1016,1 19 0 0,0
17.06.2018 02:00:00 21,0 14,2 19,6 19,7 16,8 4 2 27 15 NNW 1016,1 19 0 0,0
17.06.2018 01:00:00 22,4 13,7 19,4 19,7 16,8 17 9 27 14 NNE 1016,0 19 0 0,0
17.06.2018 00:00:00 22,2 14,1 19,5 19,7 16,8 11 6 23 12 N 1015,9 18 0 0,0
16.06.2018 23:00:00 22,2 13,3 19,5 19,7 16,8 6 3 18 10 NNW 1015,7 15 0 0,0
16.06.2018 22:00:00 23,4 13,6 20,1 19,7 16,8 9 5 18 10 N 1015,1 19 0 0,0
16.06.2018 21:00:00 23,5 13,4 20,8 19,6 16,8 5 3 14 8 WNW 1014,2 18 22 0,0
16.06.2018 20:00:00 23,9 14,9 22,8 19,6 16,8 3 1 12 6 NNE 1013,9 17 8 0,0
16.06.2018 19:00:00 25,2 15,5 24,1 19,5 16,8 8 5 20 11 N 1013,5 17 45 0,0
16.06.2018 18:00:00 25,6 14,1 24,7 19,4 16,8 8 4 20 11 NNW 1013,5 18 20 0,0
16.06.2018 17:00:00 26,5 14,3 26,6 19,2 16,8 10 5 18 10 NNE 1013,5 19 60 0,0
16.06.2018 16:00:00 26,5 13,6 25,8 19,1 16,8 10 6 19 10 NNE 1013,9 17 51 0,0
16.06.2018 15:00:00 26,0 14,1 27,5 19,0 16,8 11 6 23 12 NNE 1014,3 18 60 0,0

tt = temperature
td = dewpoint
tt 5cm = temperature 5cm
tt -20cm = temperature -20cm
tt -100cm = temperature -100cm
ff = wind speed
fx = gusts
dd = wind direction
ppp = reduced air pressure
vv = visibility
sd = sunshine duration
rr = precipitation

Next stations